Tokyo Downtown, Japan

5:37 AM JST on October 17, 2019 (GMT +0900)
Tokyo Downtown

Weather History for RJTD - July, 2019

Change the Weather History Date:

Sunday, July 21, 2019

  Actual Average (RJTI) Record (RJTI)
Temperature  
Mean Temperature 78 °F -  
Max Temperature 82 °F 87 °F 100 °F (2004)
Min Temperature 73 °F 74 °F 64 °F (2012)
Cooling Degree Days 12    
Growing Degree Days 28 (Base 50)    
Moisture  
Dew Point 75 °F    
Average Humidity 93    
Maximum Humidity 100    
Minimum Humidity 79    
Precipitation  
Precipitation 0.00 in 0.19 in - ()
Sea Level Pressure  
Sea Level Pressure 29.97 in    
Wind  
Wind Speed 4 mph ()    
Max Wind Speed 8 mph    
Max Gust Speed -    
Visibility 4.3 miles    
Events Rain    
Averages and records for this station are not official NWS values.
T = Trace of Precipitation, MM = Missing Value Source: Averaged Metar Reports

Daily Weather History Graph

Daily Weather History Graph

Search for Another Location

Airport or City:

Astronomy

Jul. 21, 2019 Rise Set
Actual Time 4:40 AM JST 6:54 PM JST
Civil Twilight 4:11 AM JST 7:23 PM JST
Nautical Twilight 3:35 AM JST 7:58 PM JST
Astronomical Twilight 2:57 AM JST 8:36 PM JST
Moon 9:38 PM JST (7/21) 8:18 AM JST (7/21)
Length of Visible Light 15h 11m
Length of Day
14h 14m
Waning Gibbous, 84% of the Moon is Illuminated
Jul 21
Waning Gibbous
Jul 25
Last Quarter
Aug 1
New
Aug 8
First Quarter
Aug 15
Full

Hourly Weather History & Observations

Time (JST) Temp. Dew Point Humidity Pressure Visibility Wind Dir Wind Speed Gust Speed Precip Events Conditions
12:00 AM 76 °F 76 °F 99% 29.99 in - SE 5.8 mph - -  
1:00 AM 76 °F 76 °F 98% 29.98 in - SSE 3.5 mph - -  
1:00 AM - - N/A% - - North - - N/A   Unknown
2:00 AM 76 °F 75 °F 97% 29.98 in - SSW 2.3 mph - -  
3:00 AM 76 °F 76 °F 99% 29.98 in 9 mi NE 2.3 mph - - Rain Light Rain Showers
4:00 AM 76 °F 76 °F 98% 29.96 in - South 4.6 mph - -  
4:00 AM - - N/A% - - North - - N/A   Unknown
5:00 AM 75 °F 75 °F 100% 29.96 in - SSE 2.3 mph - -  
7:00 AM 78 °F 77 °F 95% 29.98 in - South 2.3 mph - -  
8:00 AM 79 °F 76 °F 88% 29.99 in - East 2.3 mph - -  
9:00 AM 78 °F 76 °F 91% 29.99 in 2 mi ENE 5.8 mph - - Rain Light Rain Showers
10:00 AM 77 °F 76 °F 95% 29.99 in - ESE 3.5 mph - -  
10:00 AM - - N/A% - - North - - N/A   Unknown
12:00 PM 78 °F 76 °F 92% 29.98 in 3 mi East 3.5 mph - - Rain Light Rain Showers
2:00 PM 81 °F 76 °F 79% 29.95 in - SE 6.9 mph - -  
2:00 PM - - N/A% - - North - - N/A   Unknown
3:00 PM 81 °F 76 °F 80% 29.94 in 6 mi ESE 5.8 mph - -   Partly Cloudy
6:00 PM 79 °F 75 °F 83% 29.94 in 5 mi East 8.1 mph - -   Mist
6:00 PM - - N/A% - - North - - N/A   Unknown
7:00 PM 76 °F 73 °F 87% 29.95 in - ENE 8.1 mph - -  
7:00 PM - - N/A% - - North - - N/A   Unknown
8:00 PM 75 °F 72 °F 89% 29.96 in - East 5.8 mph - -  
9:00 PM 73 °F 72 °F 96% 29.96 in 1 mi ENE 8.1 mph - -   Mist
10:00 PM 73 °F 72 °F 97% 29.96 in - ENE 5.8 mph - -  
11:00 PM 73 °F 72 °F 96% 29.95 in - ESE 4.6 mph - -